Yuma MCAS, AZ

2:28 PM MST on June 26, 2017 (GMT -0700)
Yuma Marine Corps Air Station

Weather History for KNYL - May, 2013

Change the Weather History Date:

Tuesday, May 28, 2013

  Actual Average Record
Temperature  
Mean Temperature 82 °F 84 °F  
Max Temperature 97 °F 99 °F 116 °F (1983)
Min Temperature 67 °F 70 °F 51 °F (1908)
Degree Days  
Heating Degree Days 0 0  
Month to date heating degree days 0 0  
Since 1 July heating degree days 705 686  
Cooling Degree Days 17 19  
Month to date cooling degree days 481 446  
Year to date cooling degree days 1000 852  
Growing Degree Days 32 (Base 50)    
Moisture  
Dew Point 41 °F    
Average Humidity 25    
Maximum Humidity 35    
Minimum Humidity 14    
Precipitation  
Precipitation 0.00 in 0.00 in 0.01 in (1990)
Month to date precipitation 0.00 0.07  
Year to date precipitation 1.11 1.31  
Sea Level Pressure  
Sea Level Pressure 29.63 in    
Wind  
Wind Speed 7 mph (SW)    
Max Wind Speed 16 mph    
Max Gust Speed 22 mph    
Visibility 10 miles    
Events      
T = Trace of Precipitation, MM = Missing Value Source: NWS Daily Summary

Daily Weather History Graph

Daily Weather History Graph

Search for Another Location

Airport or City:

Trip Planner

Search our weather history database for the weather conditions in past years. The results will help you decide how hot, cold, wet, or windy it might be!

Date:

Astronomy

May. 28, 2013 Rise Set
Actual Time 5:32 AM MST 7:39 PM MST
Civil Twilight 5:04 AM MST 8:07 PM MST
Nautical Twilight 4:30 AM MST 8:41 PM MST
Astronomical Twilight 3:54 AM MST 9:17 PM MST
Moon 11:12 PM MST (5/28) 9:20 AM MST (5/28)
Length of Visible Light 15h 02m
Length of Day
14h 06m
Waning Gibbous, 82% of the Moon is Illuminated
May 28
Waning Gibbous
May 31
Last Quarter
Jun 8
New
Jun 16
First Quarter
Jun 23
Full

Hourly Weather History & Observations

Time (MST) Temp. Dew Point Humidity Pressure Visibility Wind Dir Wind Speed Gust Speed Precip Events Conditions
12:57 AM 75.0 °F 44.1 °F 33% 29.68 in 10.0 mi SSE 4.6 mph - N/A   Clear
1:57 AM 73.0 °F 43.0 °F 34% 29.67 in 10.0 mi South 3.5 mph - N/A   Partly Cloudy
2:57 AM 73.0 °F 42.1 °F 33% 29.66 in 10.0 mi South 5.8 mph - N/A   Scattered Clouds
3:57 AM 71.1 °F 42.1 °F 35% 29.66 in 10.0 mi SSE 5.8 mph - N/A   Clear
4:57 AM 70.0 °F 39.0 °F 32% 29.66 in 10.0 mi Calm Calm - N/A   Partly Cloudy
5:57 AM 68.0 °F 39.9 °F 36% 29.66 in 10.0 mi South 5.8 mph - N/A   Scattered Clouds
6:57 AM 73.0 °F 42.1 °F 33% 29.66 in 10.0 mi South 4.6 mph - N/A   Scattered Clouds
7:57 AM 77.0 °F 39.9 °F 26% 29.67 in 10.0 mi West 3.5 mph - N/A   Scattered Clouds
8:57 AM 80.1 °F 39.9 °F 24% 29.68 in 10.0 mi West 3.5 mph - N/A   Scattered Clouds
9:57 AM 84.9 °F 39.0 °F 20% 29.68 in 10.0 mi NW 5.8 mph - N/A   Mostly Cloudy
10:57 AM 88.0 °F 39.9 °F 18% 29.67 in 10.0 mi West 8.1 mph - N/A   Mostly Cloudy
11:57 AM 91.0 °F 41.0 °F 17% 29.65 in 10.0 mi West 12.7 mph - N/A   Mostly Cloudy
12:57 PM 91.9 °F 42.1 °F 18% 29.64 in 10.0 mi West 9.2 mph 18.4 mph N/A   Mostly Cloudy
1:57 PM 91.9 °F 41.0 °F 17% 29.62 in 10.0 mi Variable 3.5 mph - N/A   Mostly Cloudy
2:57 PM 93.9 °F 39.9 °F 15% 29.59 in 10.0 mi Calm Calm - N/A   Scattered Clouds
3:57 PM 96.1 °F 39.0 °F 14% 29.57 in 10.0 mi WSW 8.1 mph - N/A   Partly Cloudy
4:57 PM 97.0 °F 39.0 °F 13% 29.55 in 10.0 mi West 13.8 mph 17.3 mph N/A   Clear
5:57 PM 96.1 °F 39.0 °F 14% 29.53 in 10.0 mi West 9.2 mph - N/A   Clear
6:57 PM 95.0 °F 39.0 °F 14% 29.54 in 10.0 mi West 9.2 mph - N/A   Clear
7:57 PM 89.1 °F 46.0 °F 22% 29.56 in 10.0 mi WSW 12.7 mph - N/A   Clear
8:57 PM 86.0 °F 43.0 °F 22% 29.58 in 10.0 mi SW 10.4 mph - N/A   Clear
9:57 PM 82.0 °F 45.0 °F 27% 29.60 in 10.0 mi WSW 8.1 mph - N/A   Clear
10:57 PM 81.0 °F 44.1 °F 27% 29.62 in 10.0 mi SSW 8.1 mph - N/A   Clear
11:57 PM 79.0 °F 45.0 °F 30% 29.63 in 10.0 mi SSW 8.1 mph - N/A   Clear